Sauk Centre, MN

2:59 AM CST on December 11, 2019 (GMT -0600)
Sauk Centre

Weather History for KD39 - September, 2019

Change the Weather History Date:

Monday, September 30, 2019

  Actual Average (KGHW) Record (KGHW)
Temperature  
Mean Temperature 66 °F -  
Max Temperature 82 °F 68 °F 84 °F (2019)
Min Temperature 48 °F 40 °F 27 °F (1956)
Growing Degree Days 16 (Base 50)    
Moisture  
Dew Point 60 °F    
Average Humidity 93    
Maximum Humidity 100    
Minimum Humidity 68    
Precipitation  
Precipitation 0.72 in - - ()
Sea Level Pressure  
Sea Level Pressure 29.75 in    
Wind  
Wind Speed 9 mph ()    
Max Wind Speed 24 mph    
Max Gust Speed 26 mph    
Visibility 7.7 miles    
Events Rain , Thunderstorm    
Averages and records for this station are not official NWS values.
T = Trace of Precipitation, MM = Missing Value Source: Averaged Metar Reports

Daily Weather History Graph

Daily Weather History Graph

Search for Another Location

Airport or City:

Astronomy

Sep. 30, 2019 Rise Set
Actual Time 7:16 AM CDT 7:02 PM CDT
Civil Twilight 6:46 AM CDT 7:31 PM CDT
Nautical Twilight 6:12 AM CDT 8:06 PM CDT
Astronomical Twilight 5:37 AM CDT 8:41 PM CDT
Moon 9:26 AM CDT (9/30) 8:32 PM CDT (9/30)
Length of Visible Light 12h 44m
Length of Day
11h 45m
Waxing Crescent, 6% of the Moon is Illuminated
Sep 30
Waxing Crescent
Oct 5
First Quarter
Oct 13
Full
Oct 21
Last Quarter
Oct 27
New

Hourly Weather History & Observations

Time (CDT) Temp. Heat Index Dew Point Humidity Pressure Visibility Wind Dir Wind Speed Gust Speed Precip Events Conditions
12:18 AM 55.9 °F - 55.4 °F 98% 29.86 in 5.0 mi Calm Calm - N/A Rain , Thunderstorm Rain
12:36 AM 55.9 °F - 55.4 °F 98% 29.85 in 3.0 mi East 4.6 mph - 0.01 in Rain Rain
12:55 AM 56.3 °F - 55.6 °F 97% 29.84 in 2.5 mi ESE 6.9 mph - 0.04 in Rain Light Rain
12:56 AM 56.3 °F - 55.6 °F 97% 29.84 in 2.5 mi ESE 8.1 mph - 0.04 in Rain Light Rain
1:15 AM 56.3 °F - 55.9 °F 99% 29.82 in 2.5 mi ESE 10.4 mph - 0.01 in Rain , Thunderstorm Heavy Thunderstorms and Rain
1:16 AM 56.3 °F - 55.9 °F 99% 29.82 in 2.5 mi ESE 9.2 mph - 0.01 in   Overcast
1:37 AM 56.5 °F - 56.3 °F 99% 29.81 in 2.5 mi East 6.9 mph - 0.02 in   Drizzle
1:55 AM 56.7 °F - 56.5 °F 99% 29.79 in 2.0 mi East 10.4 mph - 0.02 in Thunderstorm Drizzle
1:56 AM 56.7 °F - 56.5 °F 99% 29.79 in 2.0 mi East 10.4 mph - 0.02 in Thunderstorm Drizzle
2:19 AM 56.8 °F - 56.7 °F 99% 29.79 in 3.0 mi East 11.5 mph - N/A Rain , Thunderstorm Rain
2:36 AM 57.2 °F - 56.8 °F 99% 29.78 in 2.5 mi East 10.4 mph - 0.01 in   Drizzle
2:55 AM 57.4 °F - 57.2 °F 99% 29.76 in 2.5 mi ESE 8.1 mph - 0.01 in Rain , Thunderstorm Light Thunderstorms and Rain
2:56 AM 57.4 °F - 57.2 °F 99% 29.76 in 2.5 mi ESE 10.4 mph - 0.01 in Rain , Thunderstorm Light Thunderstorms and Rain
3:19 AM 58.1 °F - 58.1 °F 100% 29.76 in 2.5 mi ESE 6.9 mph - N/A Thunderstorm Unknown
3:36 AM 58.3 °F - 58.1 °F 99% 29.75 in 2.5 mi East 6.9 mph - N/A   Drizzle
3:55 AM 58.8 °F - 58.6 °F 99% 29.73 in 3.0 mi East 10.4 mph - 0.01 in   Light Drizzle
3:56 AM 59.0 °F - 58.6 °F 99% 29.73 in 3.0 mi East 10.4 mph - N/A   Light Drizzle
4:15 AM 59.2 °F - 59.0 °F 99% 29.76 in 3.0 mi North 10.4 mph - 0.01 in Rain , Thunderstorm Rain
4:16 AM 59.0 °F - 59.0 °F 100% 29.76 in 3.0 mi North 11.5 mph - 0.02 in Rain , Thunderstorm Rain
4:39 AM 57.0 °F - 56.8 °F 99% 29.74 in 7.0 mi NNE 11.5 mph 19.6 mph 0.27 in Rain , Thunderstorm Light Thunderstorms and Rain
4:55 AM 56.5 °F - 56.3 °F 99% 29.74 in 5.0 mi NE 12.7 mph - 0.34 in Rain , Thunderstorm Rain
5:15 AM 56.5 °F - 56.3 °F 99% 29.74 in 4.0 mi NNE 9.2 mph - 0.14 in Rain , Thunderstorm Rain
5:16 AM 56.5 °F - 56.3 °F 99% 29.74 in 4.0 mi NE 11.5 mph 16.1 mph 0.14 in Rain , Thunderstorm Rain
5:35 AM 56.7 °F - 56.3 °F 99% 29.74 in 5.0 mi NE 11.5 mph 17.3 mph 0.17 in Rain Rain
5:40 AM 56.7 °F - 56.3 °F 99% 29.73 in 5.0 mi NE 8.1 mph - 0.18 in   Drizzle
5:57 AM 56.7 °F - 56.3 °F 99% 29.74 in 5.0 mi North 9.2 mph - 0.21 in   Heavy Drizzle
6:16 AM 56.5 °F - 56.3 °F 99% 29.75 in 4.0 mi North 11.5 mph - 0.06 in Rain Rain
6:35 AM 56.5 °F - 56.3 °F 99% 29.75 in 10.0 mi NNE 11.5 mph 18.4 mph 0.08 in Rain Rain
6:55 AM 56.8 °F - 56.3 °F 98% 29.74 in 10.0 mi NE 10.4 mph 18.4 mph 0.08 in   Light Drizzle
6:59 AM 56.8 °F - 56.3 °F 98% 29.74 in 10.0 mi NE 11.5 mph 18.4 mph 0.08 in   Light Drizzle
7:18 AM 57.2 °F - 56.3 °F 97% 29.74 in 10.0 mi ENE 15.0 mph 21.9 mph 0.01 in Rain Light Rain
7:35 AM 57.4 °F - 56.7 °F 97% 29.73 in 10.0 mi ENE 13.8 mph 19.6 mph 0.01 in   Overcast
7:55 AM 57.7 °F - 56.8 °F 97% 29.72 in 10.0 mi ENE 12.7 mph 17.3 mph 0.01 in   Overcast
7:56 AM 57.9 °F - 57.0 °F 97% 29.72 in 10.0 mi ENE 11.5 mph 17.3 mph 0.01 in   Overcast
8:15 AM 58.1 °F - 57.2 °F 97% 29.72 in 10.0 mi East 12.7 mph - N/A   Overcast
8:16 AM 58.1 °F - 57.2 °F 97% 29.72 in 10.0 mi East 13.8 mph - N/A   Overcast
8:38 AM 58.3 °F - 57.4 °F 97% 29.72 in 10.0 mi ENE 11.5 mph - N/A   Overcast
8:57 AM 58.5 °F - 57.6 °F 97% 29.71 in 10.0 mi East 13.8 mph - N/A   Overcast
9:16 AM 58.6 °F - 57.7 °F 97% 29.71 in 10.0 mi East 13.8 mph 18.4 mph N/A   Overcast
9:35 AM 58.5 °F - 57.6 °F 97% 29.71 in 10.0 mi East 10.4 mph 17.3 mph N/A   Overcast
9:36 AM 58.5 °F - 57.6 °F 97% 29.71 in 10.0 mi East 10.4 mph 17.3 mph N/A   Overcast
9:55 AM 58.5 °F - 57.7 °F 97% 29.70 in 10.0 mi East 8.1 mph - N/A   Overcast
10:17 AM 59.0 °F - 58.1 °F 97% 29.70 in 10.0 mi East 10.4 mph - N/A   Overcast
10:36 AM 59.2 °F - 58.5 °F 97% 29.70 in 10.0 mi East 5.8 mph - N/A   Overcast
10:55 AM 59.4 °F - 59.0 °F 99% 29.69 in 4.0 mi East 9.2 mph - N/A   Overcast
11:15 AM 60.1 °F - 59.5 °F 98% 29.69 in 3.0 mi ESE 11.5 mph - N/A   Overcast
11:16 AM 60.1 °F - 59.5 °F 98% 29.68 in 3.0 mi ESE 10.4 mph - N/A   Overcast
11:38 AM 60.6 °F - 60.3 °F 99% 29.68 in 3.0 mi East 5.8 mph - N/A   Overcast
11:56 AM 61.3 °F - 61.0 °F 99% 29.67 in 2.5 mi East 8.1 mph - N/A   Overcast
12:15 PM 63.3 °F - 62.6 °F 97% 29.67 in 7.0 mi ESE 8.1 mph - N/A   Overcast
12:16 PM 63.5 °F - 62.6 °F 97% 29.67 in 7.0 mi ESE 8.1 mph - N/A   Overcast
12:35 PM 65.8 °F - 64.4 °F 95% 29.66 in 7.0 mi ESE 6.9 mph - N/A   Overcast
12:36 PM 65.8 °F - 64.4 °F 95% 29.66 in 7.0 mi ESE 5.8 mph - N/A   Overcast
12:58 PM 69.1 °F - 66.4 °F 91% 29.65 in 10.0 mi ESE 6.9 mph - N/A   Overcast
1:16 PM 71.6 °F - 68.2 °F 89% 29.65 in 10.0 mi ESE 4.6 mph - N/A   Overcast
1:35 PM 73.6 °F - 69.8 °F 88% 29.65 in 10.0 mi Calm Calm - N/A   Mostly Cloudy
1:36 PM 73.8 °F - 70.0 °F 88% 29.65 in 10.0 mi Calm Calm - N/A   Mostly Cloudy
1:55 PM 77.0 °F - 72.7 °F 86% 29.64 in 10.0 mi SSE 9.2 mph - N/A   Overcast
1:56 PM 77.0 °F - 72.7 °F 86% 29.64 in 10.0 mi South 11.5 mph 17.3 mph N/A   Overcast
2:15 PM 78.8 °F - 72.7 °F 81% 29.64 in 10.0 mi South 10.4 mph - N/A   Overcast
2:37 PM 79.7 °F - 72.7 °F 79% 29.64 in 10.0 mi South 13.8 mph - N/A   Mostly Cloudy
2:55 PM 80.1 °F 84.0 °F 72.1 °F 77% 29.64 in 10.0 mi SSW 11.5 mph 19.6 mph N/A   Mostly Cloudy
3:15 PM 80.6 °F 84.4 °F 71.2 °F 73% 29.64 in 10.0 mi SSW 13.8 mph 21.9 mph N/A   Mostly Cloudy
3:16 PM 80.8 °F 84.7 °F 71.4 °F 73% 29.64 in 10.0 mi SSW 13.8 mph 21.9 mph N/A   Mostly Cloudy
3:35 PM 80.8 °F 84.7 °F 71.6 °F 73% 29.64 in 10.0 mi SSW 13.8 mph - N/A   Mostly Cloudy
3:36 PM 81.1 °F 85.4 °F 71.8 °F 73% 29.64 in 10.0 mi SSW 13.8 mph - N/A   Mostly Cloudy
3:59 PM 82.0 °F 86.5 °F 71.4 °F 70% 29.64 in 10.0 mi SSW 15.0 mph 21.9 mph N/A   Scattered Clouds
4:16 PM 82.2 °F 86.4 °F 70.9 °F 68% 29.65 in 10.0 mi SW 11.5 mph 23.0 mph N/A   Scattered Clouds
4:35 PM 79.7 °F - 71.1 °F 75% 29.66 in 10.0 mi West 15.0 mph - N/A   Mostly Cloudy
4:36 PM 79.7 °F - 71.1 °F 75% 29.66 in 10.0 mi West 17.3 mph 21.9 mph N/A   Mostly Cloudy
4:55 PM 76.8 °F - 70.0 °F 79% 29.68 in 10.0 mi West 23.0 mph 26.5 mph N/A   Mostly Cloudy
4:56 PM 76.6 °F - 69.8 °F 79% 29.69 in 10.0 mi West 24.2 mph - N/A   Mostly Cloudy
5:15 PM 71.4 °F - 66.4 °F 84% 29.70 in 10.0 mi West 13.8 mph 21.9 mph N/A   Overcast
5:19 PM 71.1 °F - 66.4 °F 85% 29.70 in 10.0 mi West 12.7 mph 21.9 mph N/A   Overcast
5:37 PM 69.4 °F - 65.3 °F 87% 29.71 in 10.0 mi West 11.5 mph - N/A   Overcast
5:55 PM 68.4 °F - 64.8 °F 88% 29.72 in 10.0 mi West 12.7 mph 17.3 mph N/A   Overcast
6:15 PM 66.7 °F - 63.7 °F 90% 29.74 in 10.0 mi WNW 12.7 mph 18.4 mph N/A   Overcast
6:16 PM 66.6 °F - 63.7 °F 90% 29.75 in 10.0 mi WNW 12.7 mph 18.4 mph N/A   Overcast
6:35 PM 64.9 °F - 62.8 °F 93% 29.76 in 10.0 mi WNW 10.4 mph - N/A   Overcast
6:36 PM 64.9 °F - 62.8 °F 93% 29.76 in 10.0 mi WNW 9.2 mph - N/A   Overcast
6:59 PM 63.7 °F - 61.9 °F 94% 29.77 in 10.0 mi West 10.4 mph - N/A   Overcast
7:16 PM 62.4 °F - 60.4 °F 93% 29.77 in 10.0 mi West 16.1 mph 20.7 mph N/A   Overcast
7:36 PM 60.3 °F - 58.5 °F 94% 29.79 in 10.0 mi West 12.7 mph 19.6 mph N/A   Overcast
7:55 PM 59.9 °F - 58.5 °F 95% 29.80 in 10.0 mi West 12.7 mph - N/A   Overcast
8:15 PM 59.2 °F - 57.2 °F 93% 29.82 in 10.0 mi WNW 12.7 mph - N/A   Overcast
8:19 PM 59.4 °F - 57.2 °F 93% 29.82 in 10.0 mi WNW 15.0 mph 20.7 mph N/A   Overcast
8:38 PM 58.1 °F - 55.2 °F 90% 29.83 in 10.0 mi WNW 18.4 mph 24.2 mph N/A   Overcast
8:55 PM 57.4 °F - 53.8 °F 88% 29.85 in 10.0 mi NW 18.4 mph 24.2 mph N/A   Overcast
9:15 PM 56.7 °F - 53.2 °F 88% 29.87 in 10.0 mi NW 15.0 mph 19.6 mph N/A   Overcast
9:16 PM 56.7 °F - 53.2 °F 88% 29.87 in 10.0 mi WNW 16.1 mph 19.6 mph N/A   Overcast
9:35 PM 55.2 °F - 52.9 °F 92% 29.89 in 10.0 mi WNW 13.8 mph 21.9 mph N/A   Overcast
9:58 PM 53.1 °F - 51.3 °F 94% 29.90 in 7.0 mi NW 16.1 mph 20.7 mph N/A   Overcast
10:17 PM 52.7 °F - 50.0 °F 91% 29.91 in 10.0 mi NW 17.3 mph 21.9 mph N/A   Overcast
10:36 PM 52.0 °F - 49.3 °F 90% 29.92 in 10.0 mi NW 15.0 mph 19.6 mph N/A   Overcast
10:55 PM 51.4 °F - 49.5 °F 93% 29.92 in 10.0 mi NW 16.1 mph 20.7 mph N/A   Overcast
10:56 PM 51.4 °F - 49.3 °F 92% 29.93 in 10.0 mi NW 17.3 mph 20.7 mph N/A   Overcast
11:15 PM 50.5 °F - 48.4 °F 92% 29.94 in 10.0 mi NW 13.8 mph 23.0 mph N/A   Overcast
11:19 PM 50.4 °F - 48.2 °F 92% 29.94 in 10.0 mi NW 17.3 mph 21.9 mph N/A   Overcast
11:37 PM 49.6 °F - 48.2 °F 95% 29.95 in 10.0 mi NW 12.7 mph - N/A   Overcast
11:55 PM 48.9 °F - 46.9 °F 93% 29.94 in 10.0 mi NNW 17.3 mph 20.7 mph N/A   Overcast